Location: Ahausen
(50.4985°N, 8.2722°E)
Time: 10:35:22
(UTC+00:00)

Tsikada Rocket - Pass Details

Date: 18 September 2020
Orbit: 958 x 1009 km, 82.9° (Epoch: 25 October)

Event Time Altitude Azimuth Distance (km) Brightness Sun altitude
Rises 17:53:09 0° 349° (N) 3,659 7.3 -4.0°
Reaches altitude 10° 17:55:39 10° 348° (NNW) 2,705 6.6 -4.4°
Maximum altitude 18:01:50 79° 264° (W) 981 4.2 -5.4°
Drops below altitude 10° 18:07:58 10° 178° (S) 2,688 6.2 -6.3°
Sets 18:10:27 0° 177° (S) 3,633 6.9 -6.7°
